1507910400.28,14618,12.38,73984.8,-2.69,-23.39,-21.09,0,*56
1507910401.49,14619,12.38,73992.0,-2.69,-23.89,-21.73,0,*51
1507910402.76,14620,12.38,73988.3,-2.69,-24.11,-22.17,0,*5C
1507910404.03,14621,12.38,73998.3,-2.69,-24.41,-22.77,0,*5E
1507910405.26,14622,12.38,74006.8,-2.73,-24.77,-23.29,0,*59
1507910406.49,14623,12.38,74000.8,-2.73,-24.97,-23.65,0,*5E
1507910407.74,14624,12.38,73994.0,-2.73,-25.29,-24.11,0,*59
1507910408.98,14625,12.38,73994.3,-2.73,-25.29,-24.15,0,*5C
1507910410.22,14626,12.38,74000.3,-2.69,-25.39,-24.25,0,*56
1507910411.43,14627,12.38,73996.5,-2.69,-25.35,-24.61,0,*5B
1507910412.67,14628,12.38,74000.5,-2.73,-25.55,-24.97,0,*50
1507910413.93,14629,12.38,74028.0,-2.73,-25.55,-25.29,0,*55
1507910415.2,14630,12.38,74014.3,-2.73,-25.71,-25.75,0,*52
1507910416.43,14631,12.38,74004.0,-2.73,-25.75,-26.23,0,*57
1507910417.71,14632,12.38,73998.8,-2.75,-25.81,-26.77,0,*58
1507910419.0,14633,12.38,73990.5,-2.75,-25.97,-27.23,0,*5E
1507910420.26,14634,12.38,73994.3,-2.75,-26.23,-27.61,0,*53
1507910421.52,14635,12.38,73986.0,-2.75,-26.29,-27.71,0,*59
1507910422.78,14636,12.38,74012.8,-2.75,-26.45,-27.23,0,*57
1507910424.08,14637,12.38,74036.0,-2.75,-26.77,-26.97,0,*59
1507910425.34,14638,12.38,74030.3,-2.77,-26.81,-26.65,0,*50
1507910426.57,14639,12.38,74024.3,-2.77,-27.03,-25.87,0,*55
1507910427.83,14640,12.38,74018.0,-2.77,-26.87,-24.71,0,*5E
1507910429.09,14641,12.38,74020.0,-2.75,-26.61,-23.49,0,*59
1507910430.36,14642,12.38,74030.8,-2.75,-26.07,-22.47,0,*55
1507910431.59,14643,12.38,74030.3,-2.75,-25.13,-21.43,0,*55
1507910432.88,14644,12.38,74026.0,-2.77,-24.15,-20.83,0,*5A
1507910434.14,14645,12.38,74040.0,-2.77,-23.09,-20.53,0,*5C
1507910435.38,14646,12.38,74036.8,-2.77,-22.27,-20.73,0,*50
1507910436.59,14647,12.38,74042.0,-2.73,-21.73,-21.39,0,*58
1507910437.82,14648,12.38,74068.3,-2.75,-21.13,-22.53,0,*58
1507910439.06,14649,12.38,74064.3,-2.77,-21.13,-23.75,0,*5E
1507910440.34,14650,12.38,74062.5,-2.77,-21.57,-25.03,0,*51
1507910441.63,14651,12.38,74058.5,-2.75,-22.17,-26.29,0,*5E
1507910442.91,14652,12.38,74118.3,-2.77,-23.03,-27.45,0,*50
1507910444.15,14653,12.38,74114.8,-2.77,-23.75,-28.15,0,*5A
1507910445.42,14654,12.38,74072.8,-2.77,-24.47,-28.63,0,*5A
1507910446.68,14655,12.38,74074.5,-2.77,-25.49,-29.17,0,*56
1507910447.96,14656,12.38,74074.0,-2.77,-26.17,-29.39,0,*51
1507910449.22,14657,12.38,74078.0,-2.79,-26.77,-29.35,0,*54
1507910450.47,14658,12.38,74092.8,-2.81,-26.87,-29.29,0,*5E
1507910451.69,14659,12.38,74064.3,-2.79,-26.87,-28.79,0,*5C
1507910452.92,14660,12.38,74070.5,-2.79,-27.13,-29.01,0,*54
1507910454.16,14661,12.31,74038.5,-2.79,-27.45,-28.97,0,*58
1507910455.38,14662,12.38,74046.8,-2.81,-27.55,-29.23,0,*53
1507910456.6,14663,12.38,74042.0,-2.79,-27.83,-29.23,0,*5E
1507910457.88,14664,12.38,74054.5,-2.81,-28.05,-29.39,0,*54
1507910459.14,14665,12.38,74046.0,-2.79,-27.99,-29.35,0,*54
1507910460.38,14666,12.38,74054.5,-2.81,-27.99,-29.07,0,*51
1507910461.62,14667,12.38,74034.5,-2.79,-28.53,-29.17,0,*5F
1507910462.86,14668,12.38,74002.5,-2.79,-27.77,-28.21,0,*5D
1507910464.13,14669,12.38,74000.0,-2.79,-27.61,-28.63,0,*5D
1507910465.39,14670,12.31,73972.5,-2.79,-28.05,-29.01,0,*5D
1507910466.67,14671,12.38,73968.5,-2.77,-28.05,-29.35,0,*55
1507910467.91,14672,12.38,73976.3,-2.77,-28.31,-29.57,0,*55
1507910469.17,14673,12.31,73976.3,-2.79,-28.21,-29.39,0,*53
1507910470.4,14674,12.38,73976.8,-2.79,-28.31,-29.51,0,*5B
1507910471.62,14675,12.38,73960.5,-2.79,-28.37,-29.57,0,*5A
1507910472.85,14676,12.38,73956.8,-2.79,-28.31,-29.35,0,*5B
1507910474.11,14677,12.38,73958.8,-2.79,-28.43,-29.35,0,*5F
1507910475.36,14678,12.38,73964.8,-2.79,-28.47,-29.39,0,*58
1507910476.64,14679,12.38,73976.5,-2.81,-28.59,-29.39,0,*51
1507910477.86,14680,12.38,73956.8,-2.81,-28.69,-29.07,0,*59
1507910479.07,14681,12.38,73966.0,-2.79,-28.37,-28.85,0,*5F
1507910480.28,14682,12.38,73956.3,-2.79,-28.15,-28.69,0,*5E
1507910481.51,14683,12.38,73926.3,-2.79,-28.15,-28.79,0,*5E
1507910482.71,14684,12.38,73934.0,-2.79,-28.31,-28.53,0,*57
1507910483.93,14685,12.38,73900.3,-2.79,-28.53,-28.69,0,*5B
1507910485.15,14686,12.31,73926.5,-2.79,-28.15,-28.79,0,*5B
1507910486.38,14687,12.38,73972.8,-2.81,-28.53,-29.07,0,*57
1507910487.61,14688,12.38,73958.8,-2.79,-28.53,-29.01,0,*59
1507910488.87,14689,12.31,73932.5,-2.77,-28.15,-29.35,0,*53
1507910490.08,14690,12.31,73934.3,-2.79,-28.53,-29.23,0,*50
1507910491.35,14691,12.38,73950.0,-2.79,-28.21,-29.35,0,*53
1507910492.6,14692,12.38,73962.8,-2.79,-28.21,-29.39,0,*5C
1507910493.83,14693,12.38,73946.8,-2.81,-28.53,-29.61,0,*52
1507910495.05,14694,12.38,73932.8,-2.79,-28.37,-29.57,0,*55
1507910496.3,14695,12.31,73948.3,-2.81,-28.43,-29.57,0,*50
1507910497.56,14696,12.38,73956.3,-2.81,-28.25,-29.57,0,*53
1507910498.84,14697,12.38,73964.0,-2.81,-28.21,-29.39,0,*5E
1507910500.09,14698,12.38,73946.3,-2.81,-28.05,-29.23,0,*5C
1507910501.34,14699,12.38,73962.0,-2.81,-28.53,-29.29,0,*54
1507910502.54,14700,12.38,73956.0,-2.79,-28.31,-29.23,0,*5C
1507910503.82,14701,12.31,73964.5,-2.81,-28.09,-29.39,0,*5A
1507910505.05,14702,12.38,74012.3,-2.79,-28.15,-29.35,0,*5F
1507910506.26,14703,12.38,73994.0,-2.79,-28.15,-28.85,0,*54
1507910507.51,14704,12.38,73968.8,-2.81,-28.25,-29.07,0,*5C
1507910508.79,14705,12.31,73960.8,-2.81,-27.99,-28.91,0,*5B
1507910510.0,14706,12.38,73954.8,-2.79,-27.93,-28.85,0,*50
1507910511.21,14707,12.31,73964.0,-2.79,-27.93,-28.97,0,*52
1507910512.46,14708,12.38,73974.0,-2.79,-27.83,-28.91,0,*5A
1507910513.72,14709,12.38,73978.5,-2.81,-27.71,-29.01,0,*59
1507910514.95,14710,12.38,73988.3,-2.79,-27.67,-29.01,0,*51
1507910516.2,14711,12.38,74024.3,-2.81,-27.55,-29.01,0,*56
1507910517.48,14712,12.38,74016.0,-2.81,-28.25,-28.75,0,*5F
1507910518.73,14713,12.38,74006.3,-2.81,-27.89,-29.01,0,*55
1507910519.98,14714,12.31,74014.3,-2.81,-28.05,-29.07,0,*5F
1507910521.21,14715,12.31,74026.8,-2.79,-27.83,-28.97,0,*50
1507910522.44,14716,12.38,74008.0,-2.79,-28.21,-28.69,0,*55
1507910523.68,14717,12.38,74010.8,-2.79,-27.61,-27.77,0,*5F
1507910524.96,14718,12.38,73988.0,-2.77,-27.99,-28.47,0,*55
1507910526.25,14719,12.31,73976.3,-2.77,-28.05,-28.63,0,*58
1507910527.5,14720,12.38,73968.5,-2.77,-27.83,-28.97,0,*58
1507910528.73,14721,12.38,73982.3,-2.77,-27.51,-28.53,0,*5E
1507910530.03,14722,12.31,73984.0,-2.77,-27.61,-28.63,0,*5D
1507910531.29,14723,12.31,74028.5,-2.75,-27.77,-28.91,0,*54
1507910532.54,14724,12.31,74052.8,-2.77,-27.83,-28.97,0,*5C
1507910533.79,14725,12.38,74082.8,-2.77,-27.35,-28.37,0,*5A
1507910535.03,14726,12.31,74022.5,-2.75,-27.55,-27.71,0,*50
1507910536.29,14727,12.38,74002.3,-2.75,-27.29,-27.61,0,*5B
1507910537.54,14728,12.31,73998.0,-2.75,-27.71,-28.15,0,*55
1507910538.8,14729,12.31,74006.5,-2.75,-27.55,-28.25,0,*51
1507910540.01,14730,12.31,74010.3,-2.69,-27.71,-27.93,0,*50
1507910541.27,14731,12.31,73988.3,-2.73,-27.39,-27.61,0,*5B
1507910542.51,14732,12.38,73992.3,-2.69,-27.23,-27.51,0,*5B
1507910543.74,14733,12.38,73990.3,-2.69,-27.55,-27.83,0,*54
1507910544.98,14734,12.31,73972.5,-2.69,-27.55,-28.05,0,*52
1507910546.24,14735,12.31,73986.5,-2.67,-27.39,-27.89,0,*5C
1507910547.49,14736,12.31,73974.3,-2.65,-27.35,-27.83,0,*5B
1507910548.74,14737,12.31,73986.3,-2.65,-26.97,-27.67,0,*59
1507910549.99,14738,12.31,73982.3,-2.65,-27.35,-28.05,0,*54
1507910551.23,14739,12.38,73980.0,-2.65,-27.77,-28.21,0,*55
1507910552.46,14740,12.31,73990.5,-2.65,-27.19,-27.67,0,*5E
1507910553.69,14741,12.38,73964.8,-2.63,-27.51,-27.89,0,*55
1507910554.95,14742,12.31,73956.5,-2.63,-26.71,-27.29,0,*5F
1507910556.15,14743,12.31,73954.3,-2.61,-27.13,-27.93,0,*58
1507910557.37,14744,12.31,73942.3,-2.61,-27.55,-28.31,0,*5A
1507910558.58,14745,12.31,73954.8,-2.61,-27.55,-28.31,0,*5B
1507910559.79,14746,12.38,73946.8,-2.61,-27.71,-28.31,0,*5E
1507910561.05,14747,12.31,73968.8,-2.63,-28.05,-27.77,0,*5C
1507910562.29,14748,12.38,73982.5,-2.63,-26.45,-25.61,0,*5C
1507910563.51,14749,12.31,73996.5,-2.61,-24.93,-24.67,0,*51
1507910564.76,14750,12.38,73974.0,-2.57,-25.71,-26.55,0,*52
1507910566.0,14751,12.31,74008.3,-2.57,-26.33,-26.23,0,*57
1507910567.23,14752,12.38,74014.3,-2.53,-26.29,-26.23,0,*5B
1507910568.43,14753,12.38,74006.0,-2.53,-26.87,-27.03,0,*5D
1507910569.66,14754,12.31,74012.8,-2.51,-27.77,-27.77,0,*55
1507910570.9,14755,12.38,73994.8,-2.51,-28.15,-28.15,0,*54
1507910572.16,14756,12.31,73946.0,-2.51,-28.25,-28.85,0,*5D
1507910573.41,14757,12.38,73962.0,-2.53,-28.47,-29.01,0,*57
1507910574.65,14758,12.31,73960.5,-2.53,-28.37,-28.63,0,*5A
1507910575.9,14759,12.31,73968.0,-2.53,-28.05,-28.47,0,*5C
1507910577.14,14760,12.31,73990.3,-2.53,-27.67,-28.21,0,*5D
1507910578.38,14761,12.38,73956.8,-2.53,-27.61,-28.37,0,*5D
1507910579.62,14762,12.31,73902.8,-2.53,-27.51,-28.05,0,*5C
1507910580.85,14763,12.31,73910.0,-2.53,-27.71,-28.47,0,*59
1507910582.05,14764,12.38,73978.5,-2.53,-28.31,-28.85,0,*5B
1507910583.31,14765,12.31,73978.8,-2.53,-27.19,-28.05,0,*57
1507910584.52,14766,12.31,73930.3,-2.53,-27.51,-28.31,0,*5F
1507910585.72,14767,12.31,73894.3,-2.53,-27.71,-28.69,0,*51
1507910586.98,14768,12.31,73898.3,-2.51,-28.15,-29.01,0,*5E
1507910588.25,14769,12.31,73912.5,-2.51,-27.99,-29.01,0,*54
1507910589.51,14770,12.31,73902.8,-2.51,-28.15,-29.01,0,*57
1507910590.78,14771,12.31,73906.8,-2.51,-28.09,-29.01,0,*5B
1507910592.07,14772,12.31,73908.5,-2.51,-28.25,-29.01,0,*56
1507910593.32,14773,12.31,73920.3,-2.51,-27.93,-29.01,0,*55
1507910594.6,14774,12.31,73922.5,-2.51,-28.09,-29.01,0,*5E
1507910595.86,14775,12.31,73890.0,-2.53,-27.99,-29.35,0,*5C
1507910597.11,14776,12.38,73888.5,-2.55,-28.21,-29.23,0,*52
1507910598.34,14777,12.31,73894.8,-2.53,-28.15,-29.35,0,*55
1507910599.54,14778,12.31,73896.5,-2.53,-28.31,-29.23,0,*5B
1507910600.82,14779,12.31,73896.3,-2.51,-28.25,-29.29,0,*57
1507910602.11,14780,12.31,73906.0,-2.55,-28.21,-29.35,0,*5C
1507910603.36,14781,12.31,73912.5,-2.55,-28.05,-29.07,0,*5A
1507910604.61,14782,12.31,73904.3,-2.55,-28.05,-29.07,0,*59
1507910605.84,14783,12.31,73878.8,-2.53,-28.15,-29.01,0,*59
1507910607.1,14784,12.31,73894.5,-2.55,-28.05,-29.07,0,*5F
1507910608.35,14785,12.31,73914.8,-2.55,-27.89,-28.91,0,*5B
1507910609.63,14786,12.31,73928.5,-2.55,-27.99,-28.21,0,*52
1507910610.89,14787,12.31,73960.3,-2.55,-27.35,-28.31,0,*54
1507910612.15,14788,12.31,73978.0,-2.55,-27.35,-28.31,0,*5B
1507910613.41,14789,12.31,73958.5,-2.55,-27.35,-28.31,0,*5A
1507910614.66,14790,12.31,73972.3,-2.55,-27.51,-28.47,0,*51
1507910615.92,14791,12.31,73942.8,-2.55,-27.67,-28.63,0,*53
1507910617.16,14792,12.31,73988.5,-2.55,-27.51,-28.85,0,*5D
1507910618.42,14793,12.31,74000.0,-2.55,-27.29,-28.63,0,*5B
1507910619.65,14794,12.31,74014.0,-2.57,-27.55,-28.91,0,*58
1507910620.85,14795,12.31,74014.0,-2.57,-27.67,-29.07,0,*56
1507910622.05,14796,12.31,74080.5,-2.57,-27.67,-29.07,0,*55
1507910623.25,14797,12.31,73990.3,-2.57,-27.89,-29.07,0,*54
1507910624.5,14798,12.31,74040.5,-2.57,-28.05,-29.13,0,*55
1507910625.7,14799,12.31,74044.8,-2.57,-28.37,-29.23,0,*56
1507910626.9,14800,12.31,74002.8,-2.57,-28.69,-28.97,0,*5C
1507910628.14,14801,12.31,73996.8,-2.57,-28.63,-29.13,0,*5A
1507910629.39,14802,12.31,73958.8,-2.59,-28.31,-29.13,0,*50
1507910630.62,14803,12.31,73942.3,-2.57,-28.09,-29.07,0,*51
1507910631.84,14804,12.31,73996.0,-2.57,-27.89,-28.75,0,*55
1507910633.07,14805,12.31,73970.5,-2.57,-27.77,-28.91,0,*5F
1507910634.3,14806,12.31,73980.8,-2.57,-27.93,-28.91,0,*56
1507910635.49,14807,12.31,73992.3,-2.57,-27.77,-29.07,0,*53
1507910636.69,14808,12.31,74024.8,-2.57,-27.77,-28.97,0,*54
1507910637.92,14809,12.31,74020.8,-2.57,-28.09,-28.97,0,*53
1507910639.12,14810,12.31,74016.8,-2.57,-28.37,-29.07,0,*5E
1507910640.35,14811,12.31,73964.3,-2.57,-28.25,-29.07,0,*5C
1507910641.6,14812,12.31,73976.8,-2.57,-28.05,-28.91,0,*53
1507910642.86,14813,12.31,74028.8,-2.59,-27.93,-29.01,0,*54
1507910644.11,14814,12.31,74022.3,-2.59,-27.99,-28.97,0,*57
1507910645.34,14815,12.31,74064.8,-2.57,-27.77,-28.75,0,*54
1507910646.59,14816,12.31,74060.8,-2.59,-28.31,-28.79,0,*58
1507910647.82,14817,12.31,74008.5,-2.57,-27.93,-28.59,0,*52
1507910649.05,14818,12.31,74018.5,-2.57,-27.93,-28.25,0,*56
1507910650.29,14819,12.31,74046.3,-2.57,-28.25,-27.89,0,*5C
1507910651.52,14820,12.31,74050.8,-2.57,-28.09,-27.07,0,*5E
1507910652.72,14821,12.31,74038.3,-2.57,-27.77,-25.91,0,*54
1507910654.0,14822,12.31,74022.3,-2.59,-27.61,-24.15,0,*53
1507910655.26,14823,12.31,74016.3,-2.59,-27.29,-22.73,0,*58
1507910656.47,14824,12.31,74000.0,-2.57,-26.39,-22.03,0,*56
1507910657.7,14825,12.31,73984.5,-2.57,-25.87,-21.83,0,*5A
1507910658.89,14826,12.31,73988.8,-2.57,-25.23,-21.73,0,*58
1507910660.14,14827,12.31,73980.8,-2.59,-24.47,-22.53,0,*55
1507910661.34,14828,12.31,73964.8,-2.57,-24.35,-24.05,0,*54
1507910662.6,14829,12.31,73978.8,-2.59,-25.09,-25.29,0,*5A
1507910663.83,14830,12.31,73990.5,-2.57,-26.17,-25.87,0,*54
1507910665.07,14831,12.31,73982.5,-2.59,-27.13,-26.39,0,*58
1507910666.33,14832,12.31,74004.0,-2.59,-27.07,-26.77,0,*54
1507910667.59,14833,12.31,74022.0,-2.59,-27.29,-27.23,0,*59
1507910668.87,14834,12.31,74026.0,-2.59,-27.39,-27.39,0,*54
1507910670.13,14835,12.31,74066.0,-2.59,-28.15,-27.61,0,*59
1507910671.39,14836,12.31,73994.0,-2.59,-28.75,-27.71,0,*5D
1507910672.59,14837,12.31,73970.8,-2.61,-28.97,-27.13,0,*5F
1507910673.86,14838,12.31,73976.5,-2.61,-28.63,-26.13,0,*5A
1507910675.09,14839,12.31,73964.8,-2.59,-28.97,-25.13,0,*58
1507910676.37,14840,12.31,73976.8,-2.63,-29.01,-23.69,0,*5A
1507910677.66,14841,12.31,73988.8,-2.63,-28.47,-21.87,0,*5A
1507910678.92,14842,12.31,73978.8,-2.63,-27.77,-20.35,0,*5D
1507910680.12,14843,12.31,73984.3,-2.61,-26.61,-18.69,0,*5A
1507910681.38,14844,12.31,73988.8,-2.63,-24.87,-17.49,0,*58
1507910682.67,14845,12.31,73972.0,-2.63,-23.03,-17.03,0,*5C
1507910683.87,14846,12.31,73962.5,-2.61,-21.63,-17.31,0,*58
1507910685.14,14847,12.31,73968.5,-2.63,-20.19,-17.93,0,*5F
1507910686.4,14848,12.31,73964.0,-2.63,-19.17,-18.55,0,*51
1507910687.64,14849,12.31,73970.3,-2.63,-19.17,-19.37,0,*55
1507910688.88,14850,12.31,73976.0,-2.61,-18.65,-20.35,0,*53
1507910690.16,14851,12.31,73970.5,-2.63,-18.89,-21.33,0,*55
1507910691.42,14852,12.31,73968.8,-2.63,-19.31,-22.27,0,*52
1507910692.67,14853,12.31,73970.0,-2.63,-19.81,-22.63,0,*58
1507910693.93,14854,12.31,73976.5,-2.63,-20.25,-22.73,0,*5A
1507910695.18,14855,12.31,73994.5,-2.63,-20.69,-22.77,0,*57
1507910696.42,14856,12.31,74004.3,-2.65,-21.17,-23.19,0,*53
1507910697.64,14857,12.31,74004.0,-2.65,-21.63,-23.69,0,*56
1507910698.91,14858,12.31,73996.0,-2.63,-22.27,-24.71,0,*52
1507910700.14,14859,12.31,73984.8,-2.63,-22.53,-25.19,0,*5F
1507910701.44,14860,12.31,73976.0,-2.63,-22.77,-25.97,0,*55
1507910702.7,14861,12.31,73996.8,-2.63,-23.53,-26.65,0,*5D
1507910703.98,14862,12.31,73988.8,-2.63,-24.15,-27.19,0,*51
1507910705.25,14863,12.31,74012.5,-2.63,-24.71,-27.51,0,*5E
1507910706.51,14864,12.31,73998.0,-2.63,-25.13,-27.83,0,*53
1507910707.74,14865,12.31,73990.5,-2.63,-25.35,-28.15,0,*56
1507910708.98,14866,12.31,73996.3,-2.63,-25.87,-28.53,0,*5E
1507910710.19,14867,12.31,74000.5,-2.65,-26.45,-28.85,0,*5F
1507910711.42,14868,12.31,74010.5,-2.65,-26.81,-29.07,0,*53
1507910712.65,14869,12.31,74014.3,-2.65,-27.29,-29.01,0,*57
1507910713.9,14870,12.31,74020.0,-2.67,-27.39,-29.07,0,*5A
1507910715.13,14871,12.31,74040.3,-2.63,-27.77,-29.07,0,*55
1507910716.41,14872,12.31,74036.8,-2.63,-27.83,-29.17,0,*5C
1507910717.66,14873,12.31,74022.8,-2.65,-27.99,-29.17,0,*50
1507910718.91,14874,12.31,74040.0,-2.67,-28.21,-29.23,0,*5E
1507910720.17,14875,12.31,74066.0,-2.67,-28.09,-29.23,0,*55
1507910721.37,14876,12.31,74040.3,-2.65,-28.15,-29.23,0,*59
1507910722.59,14877,12.31,74028.5,-2.63,-28.15,-29.23,0,*5E
1507910723.85,14878,12.31,74046.8,-2.65,-28.21,-29.39,0,*5B
1507910725.08,14879,12.31,74022.5,-2.65,-28.31,-29.51,0,*55
1507910726.34,14880,12.31,73996.0,-2.67,-28.43,-29.57,0,*52
1507910727.59,14881,12.31,73998.8,-2.67,-28.37,-29.29,0,*59
1507910728.87,14882,12.31,73974.5,-2.67,-28.25,-29.13,0,*50
1507910730.16,14883,12.31,74022.5,-2.67,-28.43,-28.59,0,*5E
1507910731.39,14884,12.31,74042.5,-2.65,-28.21,-28.37,0,*57
1507910732.63,14885,12.31,74020.8,-2.67,-28.85,-28.53,0,*58
1507910733.89,14886,12.31,74020.5,-2.67,-28.59,-28.69,0,*53
1507910735.12,14887,12.31,74008.3,-2.67,-28.53,-29.07,0,*51
1507910736.37,14888,12.31,74000.3,-2.67,-28.53,-29.13,0,*5B
1507910737.59,14889,12.31,73978.5,-2.65,-28.53,-28.85,0,*56
1507910738.85,14890,12.31,73966.5,-2.67,-28.37,-28.91,0,*5B
1507910740.1,14891,12.31,73986.8,-2.73,-28.59,-28.75,0,*5D
1507910741.36,14892,12.31,73954.5,-2.69,-28.43,-28.43,0,*5B
1507910742.6,14893,12.31,73924.5,-2.65,-28.21,-28.31,0,*57
1507910743.83,14894,12.31,73912.8,-2.67,-27.89,-28.69,0,*52
1507910745.1,14895,12.31,73918.5,-2.69,-28.05,-29.39,0,*52
1507910746.36,14896,12.31,73940.3,-2.69,-28.59,-29.73,0,*56
1507910747.62,14897,12.31,73950.0,-2.73,-29.13,-30.01,0,*5E
1507910748.85,14898,12.31,73958.3,-2.73,-28.75,-29.83,0,*52
1507910750.09,14899,12.31,73940.3,-2.73,-28.59,-29.67,0,*57
1507910751.35,14900,12.31,73976.8,-2.69,-28.25,-29.39,0,*5D
1507910752.56,14901,12.31,73984.0,-2.73,-28.31,-29.45,0,*59
1507910753.82,14902,12.31,73978.8,-2.73,-28.25,-29.35,0,*58
1507910755.05,14903,12.31,73988.0,-2.69,-28.37,-29.29,0,*5C
1507910756.28,14904,12.31,74016.0,-2.73,-28.05,-29.23,0,*5B
1507910757.51,14905,12.31,73980.8,-2.73,-28.15,-29.29,0,*51
1507910758.77,14906,12.31,73994.5,-2.69,-28.21,-29.39,0,*5F
1507910760.01,14907,12.31,73978.0,-2.69,-28.25,-29.45,0,*51
1507910761.22,14908,12.31,73974.5,-2.73,-28.31,-29.61,0,*56
1507910762.45,14909,12.31,74018.0,-2.73,-28.31,-29.51,0,*54
1507910763.67,14910,12.31,74002.0,-2.73,-28.15,-29.29,0,*55
1507910764.87,14911,12.31,73990.8,-2.73,-28.15,-29.23,0,*5E
1507910766.13,14912,12.31,73978.8,-2.69,-28.21,-29.29,0,*5B
1507910767.37,14913,12.31,73950.3,-2.69,-28.37,-29.29,0,*5D
1507910768.6,14914,12.31,73966.5,-2.69,-28.43,-29.45,0,*53
1507910769.86,14915,12.31,73974.3,-2.69,-28.09,-29.29,0,*56
1507910771.12,14916,12.31,73976.3,-2.69,-28.25,-29.39,0,*5A
1507910772.39,14917,12.31,73976.8,-2.69,-28.25,-29.39,0,*5B
1507910773.65,14918,12.31,73988.3,-2.73,-28.25,-29.35,0,*53
1507910774.88,14919,12.31,74000.3,-2.73,-28.43,-29.61,0,*53
1507910776.12,14920,12.31,73992.0,-2.73,-28.25,-29.45,0,*5F
1507910777.34,14921,12.31,73986.8,-2.73,-28.31,-29.29,0,*51
1507910778.57,14922,12.31,73982.3,-2.73,-28.15,-29.17,0,*59
1507910779.82,14923,12.31,73982.8,-2.75,-28.31,-29.13,0,*5C
1507910781.1,14924,12.31,73972.0,-2.75,-28.25,-29.29,0,*57
1507910782.34,14925,12.31,73974.5,-2.69,-28.25,-29.23,0,*51
1507910783.59,14926,12.31,73974.5,-2.73,-28.25,-29.29,0,*53
1507910784.81,14927,12.31,73964.5,-2.73,-28.31,-29.29,0,*57
1507910786.07,14928,12.31,73944.3,-2.69,-28.25,-29.29,0,*56
1507910787.33,14929,12.31,73956.5,-2.73,-28.25,-29.17,0,*51
1507910788.56,14930,12.31,73974.5,-2.73,-28.15,-29.17,0,*5A
1507910789.78,14931,12.31,73992.3,-2.73,-28.15,-29.13,0,*5F
1507910791.01,14932,12.31,74122.8,-2.73,-27.93,-28.91,0,*56
1507910792.25,14933,12.31,73992.5,-2.69,-27.89,-28.91,0,*57
1507910793.48,14934,12.31,74010.0,-2.73,-27.93,-28.75,0,*5A
1507910794.71,14935,12.31,74004.8,-2.73,-28.25,-28.97,0,*55
1507910795.97,14936,12.31,73964.3,-2.69,-28.75,-28.91,0,*5E
1507910797.21,14937,12.31,73984.0,-2.69,-28.21,-29.07,0,*50
1507910798.42,14938,12.31,74000.5,-2.69,-28.37,-29.07,0,*58
1507910799.65,14939,12.31,74008.8,-2.73,-28.25,-28.97,0,*59
1507910800.91,14940,12.31,74004.5,-2.73,-28.43,-28.91,0,*51
1507910802.16,14941,12.31,73958.8,-2.73,-28.09,-29.17,0,*51
1507910803.39,14942,12.31,73954.0,-2.69,-28.09,-29.23,0,*5E
1507910804.62,14943,12.31,73970.5,-2.73,-27.99,-28.97,0,*5C
1507910805.88,14944,12.31,73968.5,-2.73,-28.25,-29.17,0,*5A
1507910807.09,14945,12.31,73964.0,-2.73,-27.89,-28.85,0,*58
1507910808.3,14946,12.31,73986.3,-2.73,-27.89,-28.85,0,*5B
1507910809.52,14947,12.31,74014.8,-2.73,-28.15,-29.13,0,*5E
1507910810.75,14948,12.31,74032.3,-2.69,-27.93,-28.75,0,*5A
1507910812.01,14949,12.31,73976.8,-2.73,-28.09,-28.63,0,*5B
1507910813.25,14950,12.31,74018.5,-2.69,-27.71,-28.59,0,*51
1507910814.51,14951,12.31,74008.8,-2.69,-27.83,-28.75,0,*53
1507910815.74,14952,12.31,73998.3,-2.73,-27.77,-28.63,0,*57
1507910816.98,14953,12.31,73988.5,-2.69,-27.93,-28.43,0,*55
1507910818.24,14954,12.31,73992.0,-2.69,-27.83,-28.43,0,*53
1507910819.51,14955,12.31,73992.3,-2.69,-28.21,-28.25,0,*55
1507910820.75,14956,12.31,73982.8,-2.69,-27.67,-28.05,0,*59
1507910822.02,14957,12.31,74024.0,-2.67,-27.67,-27.35,0,*5A
1507910823.28,14958,12.31,74018.5,-2.69,-27.35,-26.77,0,*5B
1507910824.52,14959,12.31,74032.8,-2.69,-28.09,-25.49,0,*54
1507910825.74,14960,12.31,74036.5,-2.69,-27.71,-24.05,0,*57
1507910826.95,14961,12.31,74032.5,-2.69,-27.07,-22.41,0,*51
1507910828.21,14962,12.31,74004.5,-2.67,-26.13,-20.69,0,*50
1507910829.47,14963,12.31,73996.3,-2.67,-24.77,-19.65,0,*57
1507910830.72,14964,12.31,73990.8,-2.67,-23.53,-19.07,0,*55
1507910831.98,14965,12.31,73974.5,-2.67,-22.63,-19.61,0,*56
1507910833.25,14966,12.31,73974.5,-2.67,-22.17,-20.39,0,*51
1507910834.53,14967,12.31,73972.0,-2.67,-22.31,-21.97,0,*51
1507910835.8,14968,12.31,73976.8,-2.67,-22.93,-23.23,0,*5B
1507910837.02,14969,12.31,73980.0,-2.65,-23.69,-24.51,0,*5E
1507910838.32,14970,12.31,73974.5,-2.67,-24.71,-25.75,0,*5D
1507910839.58,14971,12.31,73966.5,-2.67,-25.49,-26.55,0,*57
1507910840.84,14972,12.31,73960.0,-2.67,-25.87,-27.23,0,*56
1507910842.1,14973,12.31,73930.5,-2.67,-26.39,-27.83,0,*5B
1507910843.36,14974,12.31,73940.5,-2.67,-27.03,-28.05,0,*55
1507910844.63,14975,12.25,73926.3,-2.67,-27.19,-28.09,0,*53
1507910845.92,14976,12.31,73916.0,-2.67,-27.35,-28.21,0,*54
1507910847.15,14977,12.31,73918.3,-2.67,-27.51,-28.37,0,*50
1507910848.36,14978,12.31,73906.5,-2.65,-27.67,-28.37,0,*58
1507910849.62,14979,12.31,73896.3,-2.67,-27.71,-28.59,0,*54
1507910850.86,14980,12.31,73848.5,-2.67,-27.93,-28.85,0,*5F
1507910852.14,14981,12.31,73880.3,-2.67,-28.05,-28.75,0,*51
1507910853.38,14982,12.25,73944.8,-2.67,-27.83,-29.07,0,*57
1507910854.67,14983,12.31,73948.8,-2.67,-28.09,-28.91,0,*55
1507910855.89,14984,12.31,73888.0,-2.65,-27.89,-29.13,0,*5C
1507910857.15,14985,12.31,73912.3,-2.67,-27.93,-28.91,0,*5F
1507910858.4,14986,12.25,73880.8,-2.67,-27.89,-28.75,0,*5D
1507910859.69,14987,12.31,73872.8,-2.67,-28.09,-28.91,0,*51
1507910860.94,14988,12.31,73840.3,-2.67,-28.37,-28.75,0,*59
1507910862.2,14989,12.31,73856.8,-2.65,-28.47,-28.63,0,*5A
1507910863.48,14990,12.31,73882.5,-2.67,-28.43,-28.47,0,*52
1507910864.74,14991,12.31,73892.0,-2.65,-28.21,-28.21,0,*55
1507910865.95,14992,12.25,73914.8,-2.65,-28.31,-28.31,0,*56
1507910867.23,14993,12.31,73952.5,-2.63,-27.35,-28.47,0,*5B
1507910868.46,14994,12.31,73934.5,-2.63,-27.51,-28.53,0,*5B
1507910869.7,14995,12.31,73926.0,-2.63,-27.67,-28.53,0,*5F
1507910870.93,14996,12.31,73948.3,-2.63,-27.51,-28.37,0,*5B
1507910872.17,14997,12.31,73986.5,-2.61,-27.61,-27.93,0,*5A
1507910873.44,14998,12.31,74006.8,-2.63,-27.29,-27.99,0,*51
1507910874.68,14999,12.31,74078.3,-2.61,-27.45,-28.31,0,*55
1507910875.93,15000,12.31,74094.8,-2.61,-27.83,-28.63,0,*50
1507910877.22,15001,12.31,74068.3,-2.59,-27.45,-28.43,0,*52
1507910878.48,15002,12.31,74028.5,-2.59,-27.71,-28.59,0,*5D
1507910879.76,15003,12.31,74014.8,-2.59,-27.83,-28.63,0,*58
1507910880.98,15004,12.31,73994.3,-2.61,-27.83,-28.97,0,*5F
1507910882.24,15005,12.31,73982.5,-2.61,-28.09,-29.17,0,*5A
1507910883.49,15006,12.31,73976.8,-2.61,-28.09,-29.17,0,*59
1507910884.74,15007,12.31,73988.0,-2.61,-27.99,-29.29,0,*53
1507910885.99,15008,12.31,73988.0,-2.61,-28.09,-29.17,0,*57
1507910887.25,15009,12.31,73992.0,-2.61,-27.99,-29.17,0,*50
1507910888.52,15010,12.31,73980.3,-2.63,-27.99,-29.17,0,*5A
1507910889.77,15011,12.31,74020.3,-2.61,-28.09,-29.13,0,*5B
1507910891.06,15012,12.25,74018.0,-2.63,-28.05,-29.17,0,*52
1507910892.35,15013,12.31,74028.0,-2.63,-28.05,-29.35,0,*53
1507910893.6,15014,12.31,74024.3,-2.63,-28.21,-29.23,0,*55
1507910894.86,15015,12.25,74034.8,-2.61,-27.99,-29.17,0,*5D
1507910896.11,15016,12.25,74032.3,-2.61,-28.25,-29.01,0,*51
1507910897.35,15017,12.31,74048.3,-2.63,-28.15,-28.53,0,*57